When you browse on this site, cookies collect data to enhance your experience and personalize the content and advertising you see.
Visit our Privacy Policy to learn more. By continuing to use the site, you agree to this use of cookies and data.

Meteo orario Svitto

Oggi, 9 Luglio, Giovedi

Tempo Temperatura Precipitazioni Vento Pressione Umidità
00:00 +15°C° 0 mm 1 m/s 704 mm Hg 86%
01:00 +15°C° 0 mm 1 m/s 704 mm Hg 84%
02:00 +15°C° 0 mm 1 m/s 704 mm Hg 81%
03:00 +15°C° 0 mm 1 m/s 703 mm Hg 78%
04:00 +15°C° 0 mm 1 m/s 703 mm Hg 75%
05:00 +18°C° 0 mm 1 m/s 703 mm Hg 70%
06:00 +20°C° 0 mm 1 m/s 704 mm Hg 66%
07:00 +21°C° 0 mm 1 m/s 704 mm Hg 61%
08:00 +23°C° 0 mm 1 m/s 704 mm Hg 56%
09:00 +25°C° 0 mm 1 m/s 704 mm Hg 50%
10:00 +27°C° 0 mm 1 m/s 705 mm Hg 45%
11:00 +28°C° 0 mm 1 m/s 704 mm Hg 42%
12:00 +29°C° 0 mm 1 m/s 704 mm Hg 39%
13:00 +29°C° 0 mm 2 m/s 704 mm Hg 36%
14:00 +30°C° 0 mm 2 m/s 704 mm Hg 37%
15:00 +30°C° 0 mm 2 m/s 704 mm Hg 38%
16:00 +30°C° 0 mm 2 m/s 704 mm Hg 40%
17:00 +28°C° 0 mm 1 m/s 703 mm Hg 49%
18:00 +27°C° 0 mm 1 m/s 703 mm Hg 59%
19:00 +25°C° 0 mm 1 m/s 703 mm Hg 69%
20:00 +24°C° 0 mm 1 m/s 703 mm Hg 73%
21:00 +22°C° 0 mm 1 m/s 703 mm Hg 77%
22:00 +20°C° 0 mm 1 m/s 703 mm Hg 81%
23:00 +20°C° 0 mm 1 m/s 703 mm Hg 79%

Domani, 10 Luglio, Venerdi

Tempo Temperatura Precipitazioni Vento Pressione Umidità
00:00 +19°C° 0 mm 1 m/s 703 mm Hg 78%
01:00 +19°C° 0 mm 1 m/s 702 mm Hg 76%
02:00 +19°C° 0 mm 1 m/s 702 mm Hg 75%
03:00 +19°C° 0 mm 1 m/s 702 mm Hg 74%
04:00 +19°C° 0 mm 1 m/s 702 mm Hg 73%
05:00 +20°C° 0 mm 1 m/s 702 mm Hg 71%
06:00 +22°C° 0 mm 1 m/s 702 mm Hg 68%
07:00 +23°C° 0 mm 1 m/s 702 mm Hg 66%
08:00 +25°C° 0 mm 1 m/s 702 mm Hg 61%
09:00 +26°C° 0 mm 1 m/s 702 mm Hg 55%
10:00 +27°C° 0 mm 1 m/s 702 mm Hg 50%
11:00 +28°C° 0.2 mm 2 m/s 702 mm Hg 51%
12:00 +28°C° 0.2 mm 2 m/s 702 mm Hg 52%
13:00 +29°C° 0.2 mm 3 m/s 702 mm Hg 53%
14:00 +27°C° 2.4 mm 2 m/s 702 mm Hg 64%
15:00 +26°C° 2.4 mm 2 m/s 701 mm Hg 75%
16:00 +24°C° 2.4 mm 2 m/s 701 mm Hg 86%
17:00 +23°C° 3.5 mm 2 m/s 701 mm Hg 89%
18:00 +22°C° 3.5 mm 1 m/s 701 mm Hg 92%
19:00 +21°C° 3.5 mm 1 m/s 701 mm Hg 95%
20:00 +20°C° 1.4 mm 1 m/s 702 mm Hg 96%
21:00 +19°C° 1.4 mm 1 m/s 702 mm Hg 96%
22:00 +19°C° 1.4 mm 1 m/s 703 mm Hg 97%
23:00 +19°C° 2.1 mm 1 m/s 702 mm Hg 97%

Dopodomani, 11 Luglio, Sabato

Tempo Temperatura Precipitazioni Vento Pressione Umidità
00:00 +18°C° 2.1 mm 1 m/s 702 mm Hg 97%
01:00 +18°C° 2.1 mm 1 m/s 702 mm Hg 98%
02:00 +16°C° 1.7 mm 1 m/s 702 mm Hg 97%
03:00 +16°C° 1.7 mm 1 m/s 702 mm Hg 97%
04:00 +15°C° 1.7 mm 1 m/s 702 mm Hg 97%
05:00 +15°C° 1.2 mm 1 m/s 702 mm Hg 97%
06:00 +15°C° 1.2 mm 1 m/s 702 mm Hg 97%
07:00 +14°C° 1.2 mm 1 m/s 702 mm Hg 96%
08:00 +15°C° 1.9 mm 1 m/s 703 mm Hg 93%
09:00 +16°C° 1.9 mm 1 m/s 703 mm Hg 90%
10:00 +16°C° 1.9 mm 0 m/s 704 mm Hg 87%
11:00 +18°C° 0.7 mm 1 m/s 704 mm Hg 86%
12:00 +19°C° 0.7 mm 1 m/s 704 mm Hg 84%
13:00 +18°C° 0.7 mm 2 m/s 704 mm Hg 83%
14:00 +18°C° 0.9 mm 2 m/s 704 mm Hg 84%
15:00 +18°C° 0.9 mm 2 m/s 705 mm Hg 86%
16:00 +18°C° 0.9 mm 2 m/s 705 mm Hg 87%
17:00 +18°C° 0.5 mm 2 m/s 705 mm Hg 89%
18:00 +17°C° 0.5 mm 2 m/s 705 mm Hg 91%
19:00 +16°C° 0.5 mm 1 m/s 705 mm Hg 92%
20:00 +15°C° 0.1 mm 1 m/s 705 mm Hg 93%
21:00 +14°C° 0.1 mm 1 m/s 706 mm Hg 94%
22:00 +13°C° 0.1 mm 1 m/s 706 mm Hg 94%
23:00 +12°C° 0 mm 1 m/s 706 mm Hg 94%

12 Luglio, Domenica

Tempo Temperatura Precipitazioni Vento Pressione Umidità
00:00 +12°C° 0 mm 1 m/s 706 mm Hg 95%
01:00 +11°C° 0 mm 1 m/s 706 mm Hg 95%
02:00 +11°C° 0 mm 1 m/s 705 mm Hg 95%
03:00 +11°C° 0 mm 1 m/s 705 mm Hg 95%
04:00 +10°C° 0 mm 1 m/s 705 mm Hg 94%
05:00 +11°C° 0 mm 1 m/s 705 mm Hg 92%
06:00 +13°C° 0 mm 1 m/s 706 mm Hg 90%
07:00 +13°C° 0 mm 0 m/s 706 mm Hg 88%
08:00 +16°C° 0 mm 1 m/s 706 mm Hg 80%
09:00 +18°C° 0 mm 1 m/s 706 mm Hg 71%
10:00 +19°C° 0 mm 2 m/s 707 mm Hg 63%
11:00 +20°C° 0 mm 2 m/s 707 mm Hg 59%
12:00 +21°C° 0 mm 3 m/s 707 mm Hg 55%
13:00 +22°C° 0 mm 3 m/s 707 mm Hg 51%
14:00 +22°C° 0 mm 3 m/s 706 mm Hg 53%
15:00 +22°C° 0 mm 3 m/s 706 mm Hg 55%
16:00 +22°C° 0 mm 3 m/s 706 mm Hg 57%
17:00 +21°C° 0 mm 3 m/s 706 mm Hg 64%
18:00 +20°C° 0 mm 2 m/s 706 mm Hg 70%
19:00 +19°C° 0 mm 2 m/s 706 mm Hg 77%
20:00 +17°C° 0 mm 2 m/s 706 mm Hg 82%
21:00 +15°C° 0 mm 1 m/s 706 mm Hg 88%
22:00 +13°C° 0 mm 1 m/s 706 mm Hg 93%
23:00 +13°C° 0 mm 1 m/s 706 mm Hg 93%

13 Luglio, Lunedi

Tempo Temperatura Precipitazioni Vento Pressione Umidità
00:00 +13°C° 0 mm 1 m/s 706 mm Hg 93%
01:00 +13°C° 0 mm 1 m/s 705 mm Hg 93%
02:00 +12°C° 0 mm 1 m/s 705 mm Hg 93%
03:00 +12°C° 0 mm 1 m/s 705 mm Hg 93%
04:00 +12°C° 0 mm 1 m/s 705 mm Hg 93%
05:00 +13°C° 0 mm 1 m/s 705 mm Hg 89%
06:00 +15°C° 0 mm 1 m/s 705 mm Hg 85%
07:00 +16°C° 0 mm 1 m/s 706 mm Hg 82%
08:00 +19°C° 0 mm 1 m/s 706 mm Hg 75%
09:00 +21°C° 0 mm 1 m/s 706 mm Hg 68%
10:00 +22°C° 0 mm 1 m/s 706 mm Hg 61%
11:00 +23°C° 0 mm 2 m/s 706 mm Hg 60%
12:00 +24°C° 0 mm 2 m/s 705 mm Hg 59%
13:00 +25°C° 0 mm 2 m/s 705 mm Hg 57%
14:00 +24°C° 0.1 mm 2 m/s 705 mm Hg 58%
15:00 +24°C° 0.1 mm 2 m/s 705 mm Hg 59%
16:00 +24°C° 0.1 mm 2 m/s 704 mm Hg 59%
17:00 +23°C° 0.1 mm 2 m/s 704 mm Hg 65%
18:00 +21°C° 0.1 mm 2 m/s 704 mm Hg 72%
19:00 +20°C° 0.1 mm 2 m/s 704 mm Hg 78%
20:00 +19°C° 0 mm 1 m/s 704 mm Hg 83%
21:00 +18°C° 0 mm 1 m/s 703 mm Hg 89%
22:00 +15°C° 0 mm 1 m/s 703 mm Hg 94%
23:00 +14°C° 0 mm 1 m/s 703 mm Hg 93%

14 Luglio, Martedi

Tempo Temperatura Precipitazioni Vento Pressione Umidità
00:00 +14°C° 0 mm 1 m/s 703 mm Hg 93%
01:00 +14°C° 0 mm 1 m/s 702 mm Hg 92%
02:00 +14°C° 0 mm 1 m/s 702 mm Hg 92%
03:00 +13°C° 0 mm 1 m/s 702 mm Hg 91%
04:00 +13°C° 0 mm 1 m/s 702 mm Hg 91%
05:00 +15°C° 0 mm 1 m/s 702 mm Hg 87%
06:00 +15°C° 0 mm 0 m/s 702 mm Hg 83%
07:00 +17°C° 0 mm 0 m/s 703 mm Hg 80%
08:00 +19°C° 0 mm 0 m/s 703 mm Hg 72%
09:00 +23°C° 0 mm 1 m/s 703 mm Hg 65%
10:00 +24°C° 0 mm 1 m/s 703 mm Hg 58%
11:00 +25°C° 0 mm 1 m/s 702 mm Hg 55%
12:00 +26°C° 0 mm 1 m/s 702 mm Hg 52%
13:00 +27°C° 0 mm 2 m/s 702 mm Hg 50%
14:00 +26°C° 0.2 mm 2 m/s 702 mm Hg 52%
15:00 +26°C° 0.2 mm 1 m/s 702 mm Hg 55%
16:00 +26°C° 0.2 mm 1 m/s 701 mm Hg 57%
17:00 +25°C° 0.3 mm 1 m/s 701 mm Hg 64%
18:00 +24°C° 0.3 mm 1 m/s 701 mm Hg 71%
19:00 +21°C° 0.3 mm 0 m/s 701 mm Hg 77%
20:00 +21°C° 0.4 mm 1 m/s 701 mm Hg 81%
21:00 +20°C° 0.4 mm 1 m/s 702 mm Hg 84%
22:00 +18°C° 0.4 mm 1 m/s 702 mm Hg 87%
23:00 +18°C° 0.1 mm 1 m/s 702 mm Hg 88%
Mostrare altro